Satellite: AAUSAT2
Catalog number: 32788
Epoch time:      12277.82643519
Element set:     418
Inclination:      097.7871 deg
RA of node:       337.1579 deg
Eccentricity:    0.0016017
Arg of perigee:   067.7267 deg
Mean anomaly:     292.5474 deg
Mean motion:   14.84780574 rev/day
Decay rate:      3.873e-05 rev/day^2
Epoch rev:           23995
Checksum:              362

Satellite: DO-64
Catalog number: 32789
Epoch time:      12278.63032313
Element set:     435
Inclination:      097.8019 deg
RA of node:       340.4099 deg
Eccentricity:    0.0015492
Arg of perigee:   059.5035 deg
Mean anomaly:     300.7605 deg
Mean motion:   14.86578684 rev/day
Decay rate:      6.492e-05 rev/day^2
Epoch rev:           24013
Checksum:              321

Satellite: CO-66
Catalog number: 32791
Epoch time:      12277.64660671
Element set:    0417
Inclination:      097.7879 deg
RA of node:       336.1889 deg
Eccentricity:    0.0016773
Arg of perigee:   068.6096 deg
Mean anomaly:     291.6921 deg
Mean motion:   14.83762654 rev/day
Decay rate:      2.953e-05 rev/day^2
Epoch rev:           23982
Checksum:              373

Satellite: RS-30
Catalog number: 32953
Epoch time:      12278.83414341
Element set:     201
Inclination:      082.5003 deg
RA of node:       226.9444 deg
Eccentricity:    0.0020392
Arg of perigee:   068.8941 deg
Mean anomaly:     291.4320 deg
Mean motion:   12.43028152 rev/day
Decay rate:        1.0e-07 rev/day^2
Epoch rev:           19818
Checksum:              265

Satellite: PHARMSAT
Catalog number: 35002
Epoch time:      12226.86484473
Element set:      78
Inclination:      040.4341 deg
RA of node:       050.6671 deg
Eccentricity:    0.0012079
Arg of perigee:   300.9773 deg
Mean anomaly:     059.0492 deg
Mean motion:   16.39309245 rev/day
Decay rate:   7.728342e-02 rev/day^2
Epoch rev:           18355
Checksum:              302

Satellite: METEOR-M
Catalog number: 35865
Epoch time:      12278.78544814
Element set:     839
Inclination:      098.6404 deg
RA of node:       330.9860 deg
Eccentricity:    0.0003330
Arg of perigee:   091.5801 deg
Mean anomaly:     268.5760 deg
Mean motion:   14.21870120 rev/day
Decay rate:       -8.3e-07 rev/day^2
Epoch rev:           15817
Checksum:              306

Satellite: RS-38
Catalog number: 35869
Epoch time:      12278.71971612
Element set:     823
Inclination:      098.6377 deg
RA of node:       330.8980 deg
Eccentricity:    0.0005518
Arg of perigee:   092.3072 deg
Mean anomaly:     267.8729 deg
Mean motion:   14.22090410 rev/day
Decay rate:        8.7e-07 rev/day^2
Epoch rev:           15818
Checksum:              335

Satellite: JUGNU
Catalog number: 37839
Epoch time:      12277.78280963
Element set:    0241
Inclination:      019.9596 deg
RA of node:       060.3096 deg
Eccentricity:    0.0019206
Arg of perigee:   340.3503 deg
Mean anomaly:     019.6161 deg
Mean motion:   14.12085568 rev/day
Decay rate:       6.20e-06 rev/day^2
Epoch rev:           05061
Checksum:              291

Satellite: SRMSAT
Catalog number: 37841
Epoch time:      12278.69284855
Element set:     242
Inclination:      019.9699 deg
RA of node:       061.8374 deg
Eccentricity:    0.0012003
Arg of perigee:   310.6014 deg
Mean anomaly:     049.3366 deg
Mean motion:   14.10166470 rev/day
Decay rate:       2.64e-06 rev/day^2
Epoch rev:            5066
Checksum:              290

Satellite: RAX-2
Catalog number: 37853
Epoch time:      12277.86369432
Element set:    0311
Inclination:      101.7046 deg
RA of node:       007.5568 deg
Eccentricity:    0.0243446
Arg of perigee:   040.7818 deg
Mean anomaly:     321.1319 deg
Mean motion:   14.80977820 rev/day
Decay rate:      7.216e-05 rev/day^2
Epoch rev:           05048
Checksum:              302

Satellite: AUBIESAT
Catalog number: 37854
Epoch time:      12278.86833767
Element set:     304
Inclination:      101.7072 deg
RA of node:       009.4234 deg
Eccentricity:    0.0243575
Arg of perigee:   037.3976 deg
Mean anomaly:     324.3868 deg
Mean motion:   14.81444237 rev/day
Decay rate:      5.509e-05 rev/day^2
Epoch rev:            5062
Checksum:              315

Satellite: HRBE
Catalog number: 37855
Epoch time:      12277.81350390
Element set:    0304
Inclination:      101.7078 deg
RA of node:       007.8006 deg
Eccentricity:    0.0244998
Arg of perigee:   040.2603 deg
Mean anomaly:     321.6455 deg
Mean motion:   14.81249505 rev/day
Decay rate:      7.854e-05 rev/day^2
Epoch rev:           05046
Checksum:              291

Satellite: RS-39
Catalog number: 38051
Epoch time:      12278.81562591
Element set:     763
Inclination:      051.6397 deg
RA of node:       356.7651 deg
Eccentricity:    0.0013846
Arg of perigee:   070.0062 deg
Mean anomaly:     032.9947 deg
Mean motion:   15.26203053 rev/day
Decay rate:     1.5285e-04 rev/day^2
Epoch rev:            3870
Checksum:              311

Satellite: E-STAR
Catalog number: 38079
Epoch time:      12278.48518885
Element set:     550
Inclination:      069.4857 deg
RA of node:       064.6073 deg
Eccentricity:    0.0707135
Arg of perigee:   109.3247 deg
Mean anomaly:     258.5464 deg
Mean motion:   14.22942666 rev/day
Decay rate:     6.1336e-04 rev/day^2
Epoch rev:            3308
Checksum:              335

Satellite: GOLIAT
Catalog number: 38085
Epoch time:      12278.48740678
Element set:     516
Inclination:      069.4873 deg
RA of node:       065.2746 deg
Eccentricity:    0.0713193
Arg of perigee:   109.6907 deg
Mean anomaly:     258.2457 deg
Mean motion:   14.21745117 rev/day
Decay rate:     5.9028e-04 rev/day^2
Epoch rev:            3306
Checksum:              332

Satellite: HORYU-2
Catalog number: 38340
Epoch time:      12278.88580632
Element set:     179
Inclination:      098.1845 deg
RA of node:       218.9168 deg
Eccentricity:    0.0012582
Arg of perigee:   347.8719 deg
Mean anomaly:     012.2022 deg
Mean motion:   14.70239287 rev/day
Decay rate:      2.103e-05 rev/day^2
Epoch rev:            2059
Checksum:              307

Satellite: RS-40
Catalog number: 38736
Epoch time:      12277.67696518
Element set:    0071
Inclination:      082.4788 deg
RA of node:       315.0678 deg
Eccentricity:    0.0019075
Arg of perigee:   163.8936 deg
Mean anomaly:     196.2761 deg
Mean motion:   12.42646648 rev/day
Decay rate:        1.0e-07 rev/day^2
Epoch rev:           00838
Checksum:              337

Satellite: PROITERES
Catalog number: 38756
Epoch time:      12278.88592976
Element set:      95
Inclination:      098.2835 deg
RA of node:       344.9095 deg
Eccentricity:    0.0012357
Arg of perigee:   193.7070 deg
Mean anomaly:     166.3795 deg
Mean motion:   14.73900714 rev/day
Decay rate:      1.013e-05 rev/day^2
Epoch rev:             378
Checksum:              335

Satellite: AENEAS
Catalog number: 38760
Epoch time:      12278.53401541
Element set:    0034
Inclination:      064.6757 deg
RA of node:       337.4563 deg
Eccentricity:    0.0218907
Arg of perigee:   283.6539 deg
Mean anomaly:     220.0928 deg
Mean motion:   14.79040195 rev/day
Decay rate:      5.424e-05 rev/day^2
Epoch rev:           00303
Checksum:              295

Satellite: OBJECT D
Catalog number: 38761
Epoch time:      12278.53286792
Element set:    0030
Inclination:      064.6753 deg
RA of node:       337.4447 deg
Eccentricity:    0.0219609
Arg of perigee:   283.7006 deg
Mean anomaly:     224.2856 deg
Mean motion:   14.79139013 rev/day
Decay rate:      3.542e-05 rev/day^2
Epoch rev:           00303
Checksum:              301

Satellite: OBJECT E
Catalog number: 38762
Epoch time:      12278.53224914
Element set:    0030
Inclination:      064.6771 deg
RA of node:       337.4428 deg
Eccentricity:    0.0219560
Arg of perigee:   283.4439 deg
Mean anomaly:     224.1284 deg
Mean motion:   14.79190727 rev/day
Decay rate:      4.835e-05 rev/day^2
Epoch rev:           00303
Checksum:              301

Satellite: OBJECT F
Catalog number: 38763
Epoch time:      12278.53194539
Element set:    0028
Inclination:      064.6755 deg
RA of node:       337.4432 deg
Eccentricity:    0.0219859
Arg of perigee:   283.6030 deg
Mean anomaly:     224.1451 deg
Mean motion:   14.79201828 rev/day
Decay rate:      4.382e-05 rev/day^2
Epoch rev:           00287
Checksum:              314

Satellite: OBJECT G
Catalog number: 38764
Epoch time:      12278.53160882
Element set:    0028
Inclination:      064.6751 deg
RA of node:       337.4420 deg
Eccentricity:    0.0219548
Arg of perigee:   283.5935 deg
Mean anomaly:     222.9426 deg
Mean motion:   14.79214043 rev/day
Decay rate:      4.593e-05 rev/day^2
Epoch rev:           00303
Checksum:              304

Satellite: OBJECT H
Catalog number: 38765
Epoch time:      12278.45503644
Element set:    0031
Inclination:      064.6769 deg
RA of node:       337.6737 deg
Eccentricity:    0.0219301
Arg of perigee:   283.5957 deg
Mean anomaly:     176.6794 deg
Mean motion:   14.79257306 rev/day
Decay rate:      6.059e-05 rev/day^2
Epoch rev:           00302
Checksum:              330

Satellite: OBJECT J
Catalog number: 38766
Epoch time:      12278.45696642
Element set:    0028
Inclination:      064.6746 deg
RA of node:       337.6519 deg
Eccentricity:    0.0219104
Arg of perigee:   283.4617 deg
Mean anomaly:     195.2216 deg
Mean motion:   14.79383851 rev/day
Decay rate:      6.945e-05 rev/day^2
Epoch rev:           00302
Checksum:              329

/EX




More information about the Keps mailing list